Temperature
12 11 11 11 10 10 9 9 9 9 9 9 9 9 9 9 9 9 9 10 10 10 10 10 10 11 11 11 11 12 12 13 13 15 15 16 16 16 16 16 16 16 16
11 11 11 10 10 10 9 9 9 8 8 8 8 8 8 8 9 9 9 9 9 9 10 10 10 10 10 11 11 11 11 12 13 14 15 15 15 16 16 16 16 16 16
11 11 11 10 10 9 9 9 8 8 8 8 8 8 8 8 8 8 8 8 9 9 9 9 10 10 10 10 10 11 11 11 12 13 13 14 15 15 15 15 16 16 16
11 11 10 10 10 9 9 9 8 8 8 8 8 8 8 8 8 8 8 8 8 8 9 9 9 9 10 10 10 10 11 11 11 12 12 13 14 14 15 15 15 15 15
11 10 10 10 9 9 9 8 8 8 8 8 8 8 7 7 7 8 7 7 8 8 8 8 9 9 9 10 10 10 10 10 11 11 12 12 13 13 14 14 14 14 14
10 10 10 9 9 9 8 8 8 8 8 8 8 8 8 7 7 7 7 7 7 7 7 8 8 8 9 9 9 10 10 10 10 10 11 11 12 13 14 14 14 13 13
10 10 9 9 9 8 8 8 8 8 8 8 8 8 8 8 8 7 7 7 7 7 7 7 8 8 8 9 9 9 10 10 10 10 10 11 12 12 13 13 14 14 14
10 10 9 9 9 8 8 8 8 8 8 8 8 8 8 8 8 7 7 7 6 7 7 7 7 8 8 8 9 9 9 10 10 10 10 11 11 12 13 14 14 13 13
10 9 9 9 8 8 8 8 8 8 8 8 8 8 8 8 7 7 7 6 6 6 7 7 7 7 8 8 8 9 9 9 9 10 10 10 11 11 11 12 12 13 12
9 9 9 8 8 8 8 8 8 8 8 8 8 8 8 7 7 7 7 6 6 6 6 6 7 7 7 8 8 8 9 9 9 9 10 10 10 11 11 12 12 13 12
9 9 9 9 8 8 8 8 8 8 8 8 8 8 7 7 7 7 7 6 6 6 6 6 7 7 7 7 8 8 9 9 9 9 9 10 10 10 11 11 12 12 13
9 9 9 9 8 8 8 8 8 8 8 8 8 8 7 7 7 6 6 6 6 6 6 6 6 7 7 7 8 8 8 8 9 9 9 9 10 10 11 11 11 12 12
9 9 9 9 8 8 8 8 8 8 8 8 8 7 7 7 6 6 6 6 6 6 6 6 6 6 7 7 8 8 8 8 8 9 9 9 10 10 10 11 11 11 11
9 9 9 8 8 8 8 8 8 8 8 8 8 7 7 6 6 6 6 6 6 6 6 6 6 6 7 7 8 8 8 8 8 9 9 9 9 9 10 10 10 11 11
9 9 9 8 8 8 8 8 8 8 8 8 7 7 7 7 6 6 6 6 6 6 6 6 6 6 7 7 7 8 8 8 8 8 9 9 9 9 9 10 10 10 10
9 9 8 8 8 8 8 9 9 8 8 8 7 7 7 7 6 6 6 6 6 6 6 6 6 7 7 7 7 8 8 8 8 9 9 9 9 9 9 9 10 10 10
9 8 8 8 8 8 8 8 8 8 8 8 8 7 7 7 6 6 6 6 6 6 6 6 7 7 7 7 7 8 8 8 8 8 9 9 9 9 9 9 10 10 10
9 9 8 8 8 8 8 8 8 8 8 8 8 7 7 7 7 7 6 6 6 6 7 7 7 7 7 7 8 8 8 8 8 8 9 9 9 9 9 9 9 10 10
9 9 8 8 8 8 8 8 8 8 8 8 8 8 7 7 7 7 7 7 7 7 7 7 7 7 7 8 8 8 8 8 8 9 9 9 9 9 9 9 9 9 9
9 9 8 8 8 8 8 8 8 8 8 8 8 8 8 7 7 7 7 7 7 7 7 7 8 8 8 8 8 8 8 9 9 9 9 9 9 9 9 9 9 9 9
9 8 8 8 8 8 8 8 8 8 8 8 8 8 8 8 7 7 7 7 7 7 7 8 8 8 8 8 8 8 9 9 9 9 9 9 9 9 9 9 9 9 9
8 8 8 8 8 8 8 8 8 8 8 8 8 8 8 8 8 7 7 7 7 7 7 8 8 8 8 8 9 9 9 9 9 9 9 9 9 9 9 9 9 9 9
8 8 8 8 8 8 8 8 8 9 9 9 9 8 8 8 8 8 7 7 7 7 7 7 8 8 8 8 8 9 9 9 9 9 9 9 9 9 9 9 9 9 9
8 8 8 8 8 8 8 8 9 9 9 9 9 9 8 8 8 8 8 7 7 7 7 7 7 8 8 8 8 8 9 9 9 9 9 9 9 9 9 9 9 9 9
8 8 8 7 8 8 8 8 8 9 9 9 9 9 9 8 8 8 8 7 7 7 7 7 7 7 7 8 8 8 8 8 9 9 9 9 9 9 9 9 9 9 8
8 7 7 7 7 8 8 8 8 9 9 9 9 9 9 9 8 8 8 7 7 7 7 7 7 7 7 7 7 8 8 8 8 8 8 9 9 9 9 9 8 8 8
Wind_Speed
5 4 5 5 6 6 6 7 7 7 7 7 8 8 8 8 8 7 7 7 7 8 8 8 8 7 5 4 4 3 4 3 5 4 2 1 2 6 6 7 8 8 7
5 5 5 6 6 6 7 8 7 8 8 8 8 8 9 9 8 8 9 9 8 8 8 8 9 8 7 6 4 4 4 4 4 5 3 1 2 7 8 8 6 6 6
5 5 5 6 6 7 8 8 8 8 8 8 8 9 9 9 9 9 9 9 9 9 9 9 9 8 8 6 6 6 4 4 4 4 3 2 1 5 7 7 7 6 6
5 5 6 7 7 8 8 8 8 8 8 9 9 9 9 10 10 10 10 10 10 10 9 9 9 9 10 9 7 7 6 5 4 4 4 3 3 5 6 7 6 4 4
5 6 7 8 7 7 8 8 8 8 9 8 9 9 9 9 10 10 10 11 9 10 9 9 9 12 14 11 8 8 7 5 5 5 4 4 5 7 7 5 7 6 4
5 7 7 7 7 7 8 8 8 9 9 9 9 10 10 10 13 15 12 9 9 9 9 9 9 11 14 16 16 14 12 8 7 6 5 6 8 7 7 8 9 7 4
6 7 7 7 7 8 9 9 9 9 9 9 10 10 11 12 16 17 18 12 10 10 10 9 11 11 10 8 12 15 15 15 12 8 7 8 7 8 10 11 10 9 5
6 7 7 7 8 9 9 10 10 9 9 9 10 10 10 13 16 16 18 13 10 11 11 11 10 10 10 8 8 8 9 9 11 8 7 8 7 7 11 11 11 8 6
6 7 7 8 9 9 10 11 10 9 9 9 9 10 10 12 15 16 15 8 8 10 11 11 11 10 13 13 9 8 8 7 9 10 10 9 9 9 9 9 11 11 8
7 7 8 8 9 10 11 11 9 9 10 10 10 10 10 11 14 15 13 6 8 8 8 9 13 13 13 14 10 9 9 8 7 7 7 8 8 10 14 12 12 13 9
7 7 8 9 9 10 9 8 10 10 10 9 10 9 8 9 11 13 12 6 7 7 6 6 7 12 14 14 12 9 11 9 7 7 6 6 6 7 10 10 10 11 11
6 8 9 9 9 10 9 10 10 9 9 9 8 8 6 7 7 9 9 8 7 6 6 5 6 10 13 13 11 10 12 10 6 6 6 7 7 8 9 10 10 8 6
7 8 9 10 9 9 9 10 10 8 7 7 6 6 6 5 6 8 8 7 7 5 5 6 6 7 8 8 11 12 9 6 6 6 7 7 6 6 7 8 9 7 6
7 8 8 9 10 10 8 7 7 7 7 6 6 6 6 5 4 5 5 5 5 4 3 2 3 4 3 3 5 6 5 6 6 6 6 5 4 5 6 7 8 9 7
7 8 8 8 9 9 9 8 8 8 7 7 6 5 5 6 5 6 5 4 3 3 1 1 1 2 2 2 3 4 4 4 5 4 4 4 5 6 6 6 7 9 7
6 7 7 8 8 8 9 10 11 10 11 11 10 8 6 8 8 8 7 7 6 4 2 2 3 3 4 5 5 4 5 6 6 5 5 5 5 6 6 6 7 9 9
6 7 7 7 8 8 8 8 9 10 10 10 11 11 11 10 9 9 8 7 6 3 2 3 4 4 4 4 5 5 6 6 6 6 5 5 5 5 6 7 8 9 9
7 8 8 7 8 8 8 8 7 7 7 7 6 9 10 10 10 9 7 4 3 3 4 5 5 5 5 5 5 5 5 5 6 6 6 6 6 6 7 8 9 9 10
6 6 7 7 8 8 7 7 6 6 6 6 5 5 6 7 7 8 5 4 4 4 5 6 6 6 5 6 6 6 6 6 6 6 7 7 7 6 6 8 8 11 9
5 10 10 7 7 7 7 7 6 6 6 5 5 5 3 2 3 4 4 5 5 6 6 6 6 6 6 6 6 5 5 6 7 6 7 7 7 7 8 9 9 10 10
5 8 11 8 7 7 7 7 6 6 6 6 6 6 4 3 5 5 5 5 5 6 6 6 5 5 5 5 5 6 7 6 6 7 7 7 8 7 7 8 9 10 10
5 6 6 7 7 6 7 6 6 6 6 6 5 5 6 4 4 5 5 5 5 5 5 5 5 5 5 5 6 6 6 6 6 6 7 7 8 8 8 8 8 9 10
5 6 6 6 6 8 8 6 6 6 6 5 5 5 4 4 4 4 5 5 4 4 4 3 3 3 3 4 4 5 7 7 7 7 7 7 8 9 9 9 10 11 11
5 6 6 6 6 6 6 6 6 6 6 5 5 5 5 5 5 4 4 4 4 3 2 2 2 3 3 3 2 2 3 4 6 7 9 9 9 9 9 10 11 12 12
4 4 4 5 6 6 6 6 7 7 6 5 5 5 5 4 4 4 3 3 3 3 3 2 1 1 1 2 2 2 3 5 5 5 7 8 9 10 10 11 10 11 11
3 3 4 5 5 6 6 6 7 7 6 6 5 5 5 5 4 4 3 3 2 3 3 2 2 1 1 1 1 1 2 3 5 6 6 8 10 10 10 9 12 12 13
Wind_Direction
267 259 263 266 267 269 268 268 268 270 273 274 275 277 279 280 280 278 275 276 267 263 260 249 245 238 234 236 234 236 238 222 248 270 273 268 144 148 132 121 121 121 136
253 253 259 265 269 271 269 267 265 265 266 265 267 268 270 274 271 269 272 277 269 265 260 253 249 245 233 229 224 227 231 228 232 257 279 241 173 159 143 131 118 112 109
257 262 271 274 272 269 268 268 266 263 264 265 263 262 264 267 267 265 262 262 260 258 254 249 246 238 234 228 220 223 226 234 228 239 257 250 177 150 136 120 112 106 100
263 270 276 275 270 268 268 269 268 266 264 264 261 257 257 259 261 263 263 262 260 258 253 246 242 232 228 224 221 219 217 218 221 231 240 238 190 157 144 141 132 117 110
271 277 276 276 276 275 277 276 275 272 274 266 264 261 257 258 261 258 255 260 259 260 259 252 248 243 235 223 216 209 204 209 212 216 224 224 198 171 164 151 146 134 99
279 281 283 287 289 288 285 282 279 277 275 272 267 264 263 268 267 263 259 256 253 253 256 255 257 259 249 233 223 211 197 198 206 212 215 220 209 182 163 156 151 153 149
290 291 294 297 296 291 293 293 285 281 277 276 271 265 263 261 260 260 260 255 246 245 246 247 258 257 244 231 229 225 215 208 200 198 211 217 211 189 171 168 169 165 149
298 300 303 302 298 297 295 291 287 281 278 276 276 271 268 270 264 258 258 255 245 241 239 237 237 244 246 227 220 217 213 212 210 206 209 214 211 197 185 176 163 135 105
302 303 301 300 300 303 301 296 290 286 284 279 277 275 272 274 271 265 261 251 243 241 240 238 233 232 235 226 213 210 211 221 220 213 214 217 206 195 175 160 157 155 152
295 295 296 297 299 301 297 293 289 284 282 285 284 279 273 275 277 274 266 244 242 244 242 239 238 232 229 220 208 200 205 212 201 200 211 221 209 194 181 180 174 170 158
290 297 299 299 300 297 293 290 291 291 289 288 288 288 283 281 286 285 277 241 235 238 237 236 236 233 229 220 206 200 207 197 191 190 195 204 200 196 192 189 184 177 169
297 302 302 302 306 311 301 299 297 292 292 293 293 295 294 294 296 299 292 263 236 227 232 234 236 236 227 215 204 204 206 192 176 180 194 201 202 201 197 191 185 184 168
307 308 306 308 306 301 298 300 302 298 291 292 292 293 299 303 308 317 312 289 257 237 238 238 232 228 210 200 199 194 189 182 173 182 198 204 201 196 186 183 175 155 122
306 306 306 310 310 308 303 297 296 296 292 289 289 289 295 301 305 321 324 310 284 260 257 260 225 190 171 172 178 183 180 184 181 187 195 191 178 181 186 182 177 163 147
305 304 307 306 304 308 307 299 294 283 270 268 271 265 274 289 288 300 302 303 286 257 232 197 161 154 166 178 175 176 179 179 188 179 180 179 181 185 185 177 168 160 159
306 309 308 308 308 307 309 312 303 290 286 272 254 246 251 253 279 294 298 299 301 279 228 208 205 197 193 190 185 186 189 193 193 182 177 180 185 189 184 175 170 168 164
295 299 303 304 306 307 307 307 310 313 304 287 271 259 252 261 273 283 287 290 288 267 231 236 230 216 210 202 195 193 198 200 190 183 186 184 184 185 181 177 176 172 168
296 300 304 299 301 302 301 300 295 297 309 312 293 269 266 265 269 273 281 292 276 236 231 234 235 228 220 216 207 203 203 193 186 188 189 185 182 182 184 179 177 175 167
299 298 301 300 300 299 299 300 298 297 295 297 306 304 282 274 274 268 250 236 245 248 240 240 238 229 223 220 216 207 200 194 189 186 188 186 180 177 182 179 174 169 165
296 306 313 304 303 305 307 307 306 304 300 298 295 290 293 270 278 269 236 233 240 248 247 245 243 234 226 219 214 205 196 193 190 189 187 185 181 178 179 175 173 174 177
297 307 315 312 303 303 306 306 304 305 301 297 290 281 267 259 275 276 265 248 243 246 247 245 243 241 231 218 206 201 198 198 193 188 187 184 179 177 176 173 172 173 174
293 295 300 300 302 306 310 309 309 308 308 308 306 305 295 280 277 279 276 269 261 253 247 241 240 239 228 214 206 201 201 199 194 188 184 179 176 175 171 171 171 171 172
293 296 301 302 303 311 318 317 316 310 306 306 308 309 311 303 292 288 288 288 281 272 265 248 239 241 237 226 211 198 198 201 196 185 181 177 175 175 173 173 174 172 174
293 294 300 309 314 316 317 318 318 313 310 309 310 308 307 308 304 298 297 298 298 289 279 261 245 247 244 231 217 203 202 204 195 186 179 176 175 174 173 175 175 175 177
299 303 314 323 325 322 320 321 322 322 321 316 311 310 313 312 309 314 317 314 319 318 320 328 318 296 256 232 217 212 205 200 199 187 178 176 174 173 172 172 173 171 172
324 332 334 334 330 327 325 326 326 328 327 326 321 316 317 315 314 313 314 313 316 321 333 346 351 7 2 309 239 202 187 190 190 183 175 171 171 171 169 170 170 173 171
Height
1498 1495 1492 1489 1486 1483 1480 1477 1475 1472 1470 1467 1465 1463 1461 1460 1458 1457 1456 1455 1454 1454 1455 1455 1456 1457 1457 1457 1458 1458 1459 1461 1461 1462 1464 1466 1468 1471 1474 1477 1480 1483 1486
1494 1491 1488 1485 1482 1478 1475 1472 1470 1467 1465 1462 1460 1457 1455 1454 1452 1451 1450 1449 1448 1447 1448 1449 1449 1451 1451 1452 1453 1454 1455 1456 1457 1458 1460 1462 1465 1468 1470 1474 1477 1480 1482
1490 1487 1484 1480 1477 1474 1471 1467 1465 1462 1459 1457 1454 1452 1449 1448 1446 1445 1443 1442 1441 1440 1441 1442 1443 1444 1445 1447 1448 1449 1450 1451 1452 1453 1455 1458 1461 1464 1466 1470 1473 1476 1478
1485 1482 1479 1475 1472 1468 1465 1462 1459 1456 1453 1450 1448 1445 1443 1441 1439 1438 1437 1435 1434 1433 1433 1434 1435 1437 1439 1441 1442 1444 1445 1446 1447 1449 1451 1454 1457 1460 1462 1465 1469 1472 1475
1481 1477 1474 1470 1466 1463 1459 1456 1453 1450 1447 1444 1441 1439 1437 1434 1432 1431 1429 1428 1427 1426 1426 1427 1428 1429 1431 1434 1436 1438 1440 1441 1443 1444 1446 1449 1452 1454 1458 1461 1465 1469 1472
1476 1473 1469 1465 1461 1457 1453 1450 1446 1443 1440 1438 1435 1432 1429 1427 1425 1424 1422 1421 1420 1419 1418 1419 1420 1422 1424 1427 1429 1432 1434 1436 1438 1439 1440 1443 1446 1450 1453 1457 1461 1465 1469
1472 1468 1464 1460 1455 1451 1448 1444 1440 1437 1434 1431 1428 1425 1422 1420 1418 1416 1414 1413 1411 1410 1410 1410 1412 1414 1416 1419 1422 1425 1427 1430 1432 1434 1435 1437 1441 1444 1448 1452 1457 1461 1465
1467 1463 1459 1454 1450 1446 1442 1438 1435 1431 1428 1425 1422 1418 1415 1412 1410 1407 1406 1404 1402 1402 1402 1402 1403 1405 1409 1412 1415 1418 1420 1423 1426 1428 1430 1433 1436 1439 1443 1447 1452 1458 1463
1463 1458 1454 1449 1444 1440 1436 1433 1429 1426 1423 1419 1416 1412 1408 1405 1403 1400 1397 1395 1394 1393 1393 1394 1395 1397 1400 1404 1407 1410 1414 1417 1420 1422 1425 1427 1429 1433 1437 1442 1447 1453 1458
1458 1454 1449 1445 1440 1435 1431 1428 1425 1421 1417 1414 1410 1406 1403 1399 1396 1393 1390 1387 1386 1385 1385 1386 1387 1389 1392 1396 1400 1403 1407 1410 1414 1417 1419 1421 1423 1427 1431 1436 1441 1446 1452
1454 1449 1445 1440 1436 1431 1428 1424 1420 1417 1413 1409 1405 1401 1397 1393 1389 1386 1383 1381 1379 1378 1379 1379 1381 1383 1386 1389 1393 1397 1401 1406 1409 1411 1413 1416 1418 1422 1425 1430 1436 1441 1446
1450 1445 1440 1436 1432 1428 1424 1420 1416 1412 1408 1404 1400 1395 1392 1388 1384 1380 1378 1376 1374 1374 1374 1375 1376 1378 1380 1384 1388 1392 1396 1400 1403 1406 1408 1410 1413 1416 1420 1425 1431 1437 1443
1446 1441 1436 1432 1428 1425 1420 1416 1412 1408 1404 1400 1396 1391 1387 1383 1380 1377 1374 1372 1371 1370 1371 1371 1372 1374 1376 1379 1383 1387 1392 1395 1398 1401 1403 1406 1409 1412 1416 1421 1426 1432 1438
1442 1437 1433 1429 1425 1421 1417 1413 1409 1405 1400 1396 1392 1388 1384 1380 1377 1374 1372 1370 1369 1369 1369 1370 1371 1372 1374 1376 1380 1383 1387 1391 1394 1397 1400 1403 1406 1409 1412 1416 1421 1426 1432
1438 1433 1429 1425 1422 1418 1414 1410 1406 1402 1398 1393 1389 1385 1381 1378 1375 1373 1371 1369 1369 1368 1369 1369 1369 1370 1372 1374 1378 1381 1384 1388 1391 1394 1397 1399 1402 1405 1408 1412 1417 1422 1427
1434 1430 1426 1422 1418 1415 1411 1407 1403 1399 1394 1390 1386 1383 1379 1376 1373 1371 1370 1369 1368 1368 1368 1368 1368 1369 1371 1373 1376 1378 1381 1385 1388 1391 1393 1396 1398 1401 1404 1408 1413 1417 1423
1430 1426 1423 1419 1416 1412 1408 1404 1400 1396 1392 1388 1384 1380 1377 1374 1372 1370 1369 1368 1367 1367 1367 1367 1367 1368 1369 1371 1373 1376 1379 1382 1385 1388 1390 1393 1395 1398 1401 1405 1409 1414 1419
1427 1423 1420 1416 1413 1409 1406 1402 1398 1394 1389 1386 1382 1379 1376 1373 1370 1368 1367 1366 1365 1365 1365 1365 1365 1366 1367 1369 1371 1373 1376 1379 1381 1384 1387 1389 1392 1395 1398 1402 1406 1410 1415
1424 1420 1417 1414 1410 1407 1403 1400 1396 1392 1388 1384 1381 1378 1375 1372 1369 1367 1365 1364 1363 1363 1363 1363 1363 1364 1365 1366 1368 1370 1372 1375 1377 1380 1383 1386 1389 1392 1395 1398 1402 1407 1412
1421 1417 1414 1411 1408 1404 1401 1397 1394 1390 1387 1383 1379 1376 1373 1370 1368 1365 1363 1362 1361 1360 1360 1360 1361 1361 1362 1364 1365 1367 1369 1371 1374 1376 1379 1382 1385 1388 1392 1395 1399 1404 1408
1417 1414 1411 1408 1405 1402 1399 1395 1392 1389 1385 1382 1379 1375 1372 1369 1366 1364 1361 1359 1358 1358 1357 1358 1358 1358 1359 1361 1362 1364 1366 1368 1370 1373 1375 1378 1382 1385 1388 1392 1396 1401 1405
1415 1411 1408 1405 1402 1400 1397 1394 1391 1387 1384 1381 1378 1374 1371 1368 1365 1362 1359 1357 1356 1355 1354 1354 1355 1355 1356 1357 1358 1360 1361 1363 1366 1369 1372 1374 1377 1381 1385 1389 1393 1397 1402
1412 1409 1405 1403 1400 1398 1395 1392 1389 1386 1383 1380 1377 1373 1370 1367 1363 1360 1358 1355 1354 1352 1351 1351 1351 1352 1352 1353 1354 1356 1357 1359 1362 1364 1367 1370 1374 1377 1381 1385 1389 1393 1398
1408 1406 1403 1400 1398 1395 1393 1390 1387 1385 1382 1379 1376 1373 1369 1366 1362 1359 1356 1354 1352 1350 1349 1348 1348 1348 1349 1349 1350 1351 1353 1355 1357 1360 1363 1366 1370 1374 1377 1381 1385 1390 1395
1405 1403 1400 1398 1396 1393 1391 1389 1386 1384 1381 1378 1375 1372 1369 1365 1362 1359 1356 1353 1351 1349 1347 1346 1345 1345 1345 1345 1346 1346 1348 1350 1352 1355 1359 1362 1365 1369 1373 1377 1382 1386 1391
1402 1400 1398 1396 1394 1391 1389 1387 1385 1383 1380 1378 1375 1373 1369 1366 1362 1359 1356 1353 1351 1348 1346 1345 1344 1343 1342 1341 1341 1342 1343 1345 1348 1351 1354 1358 1362 1366 1370 1374 1378 1383 1388